Regional Weather Roundup
Issued by NWS Charleston, SC

Current Version | Previous Version | Graphics & Text | Print | Product List | Glossary On
Versions: 1 2 3 4 5 6 7 8 9 10 11 12 13 14 15 16 17 18 19 20 21 22 23 24 25 26 27 28 29 30 31 32 33 34 35 36 37 38 39 40 41 42 43 44 45 46 47 48 49 50
000
ASUS42 KCHS 190925
RWRCHS

REGIONAL WEATHER ROUNDUP
NATIONAL WEATHER SERVICE CHARLESTON SC
500 AM EDT FRI SEP 19 2014

NOTE: "FAIR" INDICATES FEW OR NO CLOUDS BELOW 12,000 FEET WITH NO
SIGNIFICANT WEATHER AND/OR OBSTRUCTIONS TO VISIBILITY.

NOT ALL STATIONS ARE QUALITY CONTROLLED BY THE NATIONAL
WEATHER SERVICE. USE DATA WITH CAUTION...ESPECIALLY
DEWPOINT OBSERVATIONS.

SCZ027-030-031-034>040-042>050-191000-
...SOUTH CAROLINA...

CITY           SKY/WX    TMP DP  RH WIND       PRES   REMARKS
N CHARLESTON   PTCLDY    72  69  90 NE5       29.99S
WATERFRONT PRK   N/A     75 N/A N/A N12         N/A
FORT JOHNSON   NOT AVBL
MOUNT PLEASANT FAIR      72  70  94 N3        29.99S
JOHNS ISLAND   PTSUNNY   73  73 100 CALM      29.99S
PINOPOLIS        N/A     73  70  88 E5        29.94R
MONCKS CORNER    N/A     72  70  94 CALM      30.00S
SUMMERVILLE    FAIR      68  68 100 CALM      30.01S
BEAUFORT MCAS  PTCLDY    71  69  93 E3        29.99R
BEAUFORT ARPT  CLOUDY    73  73 100 N5        29.99R
HILTON HEAD IS PTCLDY    72  70  94 CALM      29.99R
GEORGETOWN     NOT AVBL
WALTERBORO     PTSUNNY   72 N/A N/A CALM      30.01S
ORANGEBURG     MOCLDY    70  67  90 E5        30.02R
BARNWELL       FAIR      70  70 100 CALM      30.02R
AIKEN          FAIR      68  68 100 E3        30.06R FOG
MANNING        PTSUNNY   68 N/A N/A NE3       30.03R
KINGSTREE      NOT AVBL
COLUMBIA       PTCLDY    69  67  93 E3        30.02R
SUMTER         PTCLDY    67  63  84 E6        30.03R
FLORENCE       PTCLDY    67  63  87 E7        30.05R
MYRTLE BEACH   CLOUDY    72  63  73 N12       30.03R
N MYRTLE BEACH PTCLDY    68  63  84 NE9       30.04R

$$

GAZ063-065-086>088-099>101-113>116-118-119-134-136>141-150-191000-
...GEORGIA...

CITY           SKY/WX    TMP DP  RH WIND       PRES   REMARKS
SAVANNAH ARPT  PTCLDY    71  68  90 CALM      29.98R
HUNTER AAF     PTCLDY    71  70  95 NE1       29.96R
FORT STEWART   MOCLDY    71  69  93 NE1       29.97R
STATESBORO     NOT AVBL
SYLVANIA       MOSUNNY   71  71  97 CALM      30.01R
CLAXTON        FAIR     N/A N/A N/A CALM      29.99R HAZE
THOMSON        CLOUDY    67  67 100 CALM      30.06S
AUGUSTA-BUSH   MOCLDY    68  66  93 CALM      30.00R
AUGUSTA-DANIEL MOCLDY    71  68  90 CALM      30.02R
SWAINSBORO     FAIR      72  72 100 CALM      30.01R
VIDALIA        MOCLDY    72  70  94 NE3       30.00R
ALMA           MOCLDY    72  71  97 E3        29.97R FOG
WAYCROSS       PTCLDY    75  75  99 NE5       29.97R FOG
JESUP          FAIR      73  73 100 NE3       29.97S
BRUNSWICK      PTCLDY    73  72  94 CALM      29.96S
SAINT SIMONS   MOCLDY    76  73  91 CALM      29.95R

$$

SCZ027-028-034-036>038-045-046-048>050-GAZ119-141-191000-
...LAKE AND SUPPLEMENTAL COASTAL OBSERVATIONS...

STATION/POSITION TIME  TEMP    WIND        PRES    WAVE   SWELL
                       AIR SEA DIR/SP/G            HT/PER HT/PER/DIR
                 (UTC) (F)     (DEG/KT/KT) (MB)    (FT/S) (FT/S/D)
UPR LAKE MARION  NOT AVBL
WINYAH BAY       0900   79      90/ 14     1015.0S
LAKE MURRAY      0900   71      40/  1/  3 1016.3R
ACE BASIN NERRS  0900   70      10/  1     1015.0S
FORT PULASKI     0900   79     360/  3/  4 1015.1R
SAPELO ISLAND    0900   75      10/  4     1015.0S

$$

ANZ835-935-AMZ111-154-330-350-352-354-374-450-454-472-191000-
...C-MAN AND BUOY OBSERVATIONS...

STATION/POSITION TIME  TEMP    WIND        PRES    WAVE   SWELL
                       AIR SEA DIR/SP/G            HT/PER HT/PER/DIR
                 (UTC) (F)     (DEG/KT/KT) (MB)    (FT/S) (FT/S/D)
FOLLY BEACH CMAN 0900   80      60/ 10/ 11 1015.6R
BUOY 41004       0900   79 83   60/ 14/ 16 1014.4F   4/ 6   2/10
BUOY 41008       0900   77 84  250/  4/  8 1014.2R   2/ 9   2/110/ 9
5E ST. MARYS GA  0900      84                N/A     3/11   2/100/11
FRYING PAN BUOY  NOT AVBL
BUOY 41025       0900   74      40/ 16/ 19 1017.4R   5/ 7   3/ 50/ 8
CAPE LOOKOUT NC  0900   74      30/ 17/ 19 1017.9R
BUOY 41002       0814   78 82   60/ 14/ 16 1015.7R   4/ 6   2/ 90/10
BUOY 41010       0900   82 85   70/  6/  8 1013.2R   3/11   3/ 30/11
BUOY 41012       NOT AVBL
ST AUGUSTINE FL  0900   75     290/  2/  3 1014.3R
CAPERS NEARSHORE 0800   79      90/ 12/ 14   N/A
FRIPP NEARSHORE  NOT AVBL


$$


USA.gov is the U.S. government's official web portal to all federal, state and local government web resources and services.